Regional Weather Roundup
Issued by NWS Jackson, KY

Home | Current Version | Previous Version | Text Only | Print | Product List | Glossary Off
Versions: 1 2 3 4 5 6 7 8 9 10 11 12 13 14 15 16 17 18 19 20 21 22 23 24 25 26 27 28 29 30 31 32 33 34 35 36 37 38 39 40 41 42 43 44 45 46 47 48 49 50

858
ASUS43 KJKL 171510
RWRJKL

EAST KENTUCKY HOURLY WEATHER ROUNDUP
NATIONAL WEATHER SERVICE JACKSON KY
1000 AM EST SUN DEC 17 2017

NOTE: "FAIR" INDICATES FEW OR NO CLOUDS BELOW 12,000 FEET WITH
NO SIGNIFICANT WEATHER AND/OR OBSTRUCTIONS TO VISIBILITY.

* THESE REPORTS ARE NOT UNDER NWS QUALITY CONTROL AND MAY NOT
  REPORT WEATHER SUCH AS PRECIPITATION AND FOG.

KYZ079-080-083-085-087-088-110-112-115-119-120-171600
...EASTERN KENTUCKY...

CITY           SKY/WX    TMP DP  RH WIND       PRES   REMARKS
JACKSON        CLOUDY    39  28  64 CALM      30.23S
LONDON         CLOUDY    37  30  75 SE3       30.24F
SOMERSET*      CLOUDY    39  30  70 S5        30.24F
MONTICELLO*    CLOUDY    42  31  64 E6        30.24F
WILLIAMSBURG*  CLOUDY    37  32  81 SE8       30.23F WCI  31
MIDDLESBORO*   DRIZZLE   34  32  92 CALM      30.28F
HARLAN APT*    CLOUDY    34  30  86 CALM      30.26F
PIKE CO APT*   CLOUDY    37  27  66 CALM      30.24R
BIG SANDY APT* PTSUNNY   40  28  62 S6        30.24S
MOREHEAD APT*  MOSUNNY   41  28  60 CALM      30.24F
$$

KYZ035-036-041-042-044-050-067-078-099-171600
...CENTRAL KENTUCKY...

CITY           SKY/WX    TMP DP  RH WIND       PRES   REMARKS
MT STERLING*   PTSUNNY   41  30  65 SW8       30.22F
FLEMING/MASON* MOSUNNY   40  31  69 S7        30.21F
DANVILLE*      CLOUDY    39  30  70 CALM      30.21F
LEXINGTON      CLOUDY    43  30  60 S6        30.20F
FRANKFORT      CLOUDY    43  29  57 S6        30.18F
LOUISVILLE     CLOUDY    43  31  62 S10       30.17F
LEBANON*       CLOUDY    43  28  56 S7        30.20R
GLASGOW*       LGT RAIN  43  33  66 S3        30.18F
BOWLING GREEN  CLOUDY    44  36  73 S8        30.18F
$$

KYZ091>093-OHZ055-061-077-WVZ005-015-034-035-042-171600
...SOUTHERN OHIO/WEST VIRGINIA...

CITY           SKY/WX    TMP DP  RH WIND       PRES   REMARKS
COVINGTON      CLOUDY    40  32  73 S8        30.15F WCI  34
COLUMBUS       CLOUDY    38  30  73 S3        30.19F
DAYTON         CLOUDY    38  31  76 S9        30.15F WCI  31
WILMINGTON     CLOUDY    38  31  76 S7        30.17F WCI  33
HUNTINGTON     MOSUNNY   40  27  59 CALM      30.23R
CHARLESTON     CLOUDY    34  29  82 S3        30.27R
PINEVILLE*       N/A     34  28  80 MISG      30.30S
BECKLEY        CLOUDY    37  27  67 CALM      30.23R
BLUEFIELD      CLOUDY    37  23  56 W5        30.24R WCI  33
LOGAN CO APT*    N/A     39  27  60 CALM      30.24S
$$

VAZ002-007-008-TNZ017-027-036-066-071-171600
...SOUTHWEST VIRGINIA/EAST TENNESSEE...

CITY           SKY/WX    TMP DP  RH WIND       PRES   REMARKS
WISE*          CLOUDY    36  30  80 SW8       30.24R WCI  29
JONESVILLE*    LGT RAIN  32  30  93 CALM      30.30F
ABINGDON*      CLOUDY    37  31  76 NE3       30.26R
BRISTOL        CLOUDY    34  30  85 CALM      30.27R
MORRISTOWN*    PTSUNNY   36  30  80 CALM      30.26F
SEVIERVILLE*   PTSUNNY   34  30  86 CALM      30.29S
KNOXVILLE      CLOUDY    36  33  89 E3        30.28S
LAFOLLETTE*    PTSUNNY   36  32  87 CALM      30.31S
OAK RIDGE      CLOUDY    38  34  85 CALM      30.30S
CROSSVILLE     CLOUDY    40  31  70 S3        30.23F
NASHVILLE      CLOUDY    42  38  85 S6        30.21F
$$

...KEY TO REMARKS...
VSB - VISIBILITY IN MILES
WCI - WIND CHILL INDEX
HX  - HEAT INDEX

$$




USA.gov is the U.S. government's official web portal to all federal, state and local government web resources and services.